Weather History for KROG - August, 2013

Change the Weather History Date:

Tuesday, August 20, 2013

  Actual Average Record
Temperature  
Mean Temperature 74 °F -  
Max Temperature 84 °F 85 °F 99 °F (2011)
Min Temperature 64 °F 65 °F 53 °F (2015)
Cooling Degree Days 9    
Growing Degree Days 24 (Base 50)    
Moisture  
Dew Point 63 °F    
Average Humidity 68    
Maximum Humidity 93    
Minimum Humidity 41    
Precipitation  
Precipitation 0.00 in - - ()
Sea Level Pressure  
Sea Level Pressure 30.07 in    
Wind  
Wind Speed 4 mph (SE)    
Max Wind Speed 8 mph    
Max Gust Speed -    
Visibility 10 miles    
Events      
Averages and records for this station are not official NWS values.
T = Trace of Precipitation, MM = Missing Value Source: NWS Daily Summary

Daily Weather History Graph

Daily Weather History Graph

Search for Another Location

Airport or City:

Trip Planner

Search our weather history database for the weather conditions in past years. The results will help you decide how hot, cold, wet, or windy it might be!

Date:

Astronomy

Aug. 20, 2013 Rise Set
Actual Time 6:38 AM CDT 8:00 PM CDT
Civil Twilight 6:11 AM CDT 8:27 PM CDT
Nautical Twilight 5:39 AM CDT 8:59 PM CDT
Astronomical Twilight 5:05 AM CDT 9:33 PM CDT
Moon 7:34 PM CDT (8/20) 6:08 AM CDT (8/20)
Length of Visible Light 14h 15m
Length of Day
13h 21m
Full, 100% of the Moon is Illuminated
Aug 20
Full
Aug 20
Full
Aug 28
Last Quarter
Sep 5
New
Sep 12
First Quarter

Hourly Weather History & Observations

Time (CDT) Temp. Heat Index Dew Point Humidity Pressure Visibility Wind Dir Wind Speed Gust Speed Precip Events Conditions
12:57 AM 70.0 °F - 64.0 °F 81% 30.06 in 10.0 mi ESE 5.8 mph - N/A   Partly Cloudy
1:57 AM 69.1 °F - 63.0 °F 81% 30.06 in 10.0 mi ESE 3.5 mph - N/A   Clear
2:57 AM 68.0 °F - 63.0 °F 84% 30.05 in 10.0 mi Calm Calm - N/A   Clear
3:57 AM 66.0 °F - 64.0 °F 93% 30.06 in 10.0 mi Calm Calm - N/A   Clear
4:57 AM 66.9 °F - 64.0 °F 90% 30.06 in 10.0 mi Calm Calm - N/A   Clear
5:57 AM 66.0 °F - 64.0 °F 93% 30.07 in 9.0 mi ESE 3.5 mph - N/A   Clear
6:57 AM 64.9 °F - 62.1 °F 90% 30.09 in 9.0 mi Calm Calm - N/A   Clear
7:57 AM 69.1 °F - 64.0 °F 84% 30.10 in 10.0 mi ESE 3.5 mph - N/A   Clear
8:57 AM 72.0 °F - 64.0 °F 76% 30.11 in 10.0 mi SE 8.1 mph - N/A   Clear
9:57 AM 77.0 °F - 64.9 °F 66% 30.11 in 10.0 mi SE 5.8 mph - N/A   Clear
10:57 AM 80.1 °F 82.1 °F 66.0 °F 62% 30.10 in 10.0 mi SSE 6.9 mph - N/A   Clear
11:57 AM 81.0 °F 82.2 °F 63.0 °F 54% 30.10 in 10.0 mi ESE 6.9 mph - N/A   Scattered Clouds
12:57 PM 84.0 °F 84.5 °F 62.1 °F 47% 30.09 in 10.0 mi SE 8.1 mph - N/A   Scattered Clouds
1:57 PM 82.9 °F 83.3 °F 61.0 °F 47% 30.08 in 10.0 mi SE 4.6 mph - N/A   Scattered Clouds
2:57 PM 84.9 °F 85.4 °F 62.1 °F 46% 30.06 in 10.0 mi East 6.9 mph - N/A   Partly Cloudy
3:57 PM 84.9 °F 84.4 °F 59.0 °F 41% 30.05 in 10.0 mi SE 6.9 mph - N/A   Clear
4:57 PM 84.9 °F 85.0 °F 61.0 °F 44% 30.04 in 10.0 mi South 5.8 mph - N/A   Clear
5:57 PM 84.0 °F 84.4 °F 61.0 °F 46% 30.03 in 10.0 mi SE 8.1 mph - N/A   Clear
6:57 PM 82.0 °F 83.0 °F 62.1 °F 51% 30.03 in 10.0 mi SSE 5.8 mph - N/A   Clear
7:57 PM 78.1 °F - 64.9 °F 64% 30.04 in 10.0 mi SE 5.8 mph - N/A   Clear
8:57 PM 75.0 °F - 64.9 °F 71% 30.05 in 10.0 mi SSE 5.8 mph - N/A   Clear
9:57 PM 73.0 °F - 64.0 °F 73% 30.06 in 10.0 mi SSE 5.8 mph - N/A   Clear
10:57 PM 71.1 °F - 64.0 °F 78% 30.07 in 10.0 mi SE 6.9 mph - N/A   Clear
11:57 PM 71.1 °F - 64.9 °F 81% 30.07 in 10.0 mi ESE 6.9 mph - N/A   Clear